IRIDIUM 33 DEB, 34525

Orbit data source: Space-Track

IRIDIUM 33 DEB, 34525 is space debris in LEO originally from a launch on Sun, 14 Sep 1997 UTC launched from the Tyuratam Missile And Space Complex (TTMTR). The debris from Iridium 33, an American commercial communications satellite, has been tracked extensively since its accidental collision with the defunct Russian satellite Cosmos 2251 in 2009. This event, occurring at high speed in low Earth orbit (LEO), generated thousands of pieces of space debris, significantly increasing the risk of further collisions. The Iridium 33 debris cloud has impacted space traffic management and orbital debris mitigation strategies, making it a subject of ongoing study in space situational awareness.

Loading next visibility...
Identifier
34525, 1997-051HS
Orbit
LEO
Country
Flag of USUS
Related business
Manufacturer
Unknown
Mission
Spacecraft
Bus & Motor
Unknown
Mass
Unknown
Launch date (UTC)
1997-09-14 (29 years ago)
Launch vehicle
Unknown
Launch site
Tyuratam Missile And Space Complex (TTMTR)
Object type
Payload
Rocket body
Debris
Shape & HBR
Unknown shape, 0.1 m
Radar Cross Section
Small (<0.1 m²)

Expand to show TLE details & history
Last TLE update: 14 hours ago

TLE from 14 hours ago
0 IRIDIUM 33 DEB
1 34525U 97051HS  26104.96895056  .00000611  00000-0  17552-3 0  9993
2 34525  86.3769 354.2495 0006431  57.0089 318.0059 14.43263944898657
Epoch: 2026-04-14T23:15Z
TLE epoch observation values (Epoch: 2026-04-14T23:15:17.328Z)
Latitude
14.90743°
Longitude
163.25042°
Altitude
746.682 km
Speed
7.484 km/s
True Right ascension
23h 40m 50s
True Declination
14° 49' 19"
Sunlit
Object was in daylight at epoch
Visualization orbit readout
Latitude
Unknown
Longitude
Unknown
Altitude
Unknown
Speed
Unknown
Apparent Right ascension
Unknown
Apparent Declination
Unknown
Sunlit
N/A
Visualization observer readout
Local Sidereal Time
20:16:02
Azimuth
Unknown
Elevation
Unknown
Doppler factor
Unknown
Orbital elements
Apogee altitude
749.268 km
Perigee altitude
740.106 km
Semi-major axis
7,122.824 km
Eccentricity
0.00064
Inclination
86.3769°
RAAN
354.2495°
Arg. of periapsis
57.0089°
True anomaly
317.95657°
Mean anomaly
318.0059°
Eccentric anomaly
317.98124°
Mean motion
3.61048 °/min
Orbital period
99.71 mins
BSTAR
0.00017552
Loading maneuver chart data...
Computing Atmospheric mass density...

Documentation

Showing up to 5 results
|